Погода в Долгой Поляне

Россия / Белгородская область     51°09′06″N   37°44′58″E
темп.,
°C
ветер,
м/с
пор.,
м/с
влажн.,
%
обл.,
%
осадки,
мм/ч
давл.,
гПа
погр.,
м
6 мая, чт
чт600:00+11ю41265100 0.0 1014329
03:00+11ю41264100 0.0 1013361
06:00+10ю4117199 0.0 1013308
09:00+13ю61159100 0.0 1013817
12:00+16ю81249100 0.0 10121537
15:00+18ююз71144100 0.0 10112154
18:00+17ююз5951100 0.0 10091050
21:00+13юз3873100 0.2 1010357
7 мая, пт
пт700:00+9ссз5790100 1.7 1011451
03:00+8сз4689100 5.4 1013506
06:00+7сз248726 0.1 1014233
09:00+11зсз34716 0.1 1015894
12:00+15зсз33395 0.0 10161952
15:00+16зюз23325 0.0 10152178
18:00+15ююз3445100 0.0 1015933
21:00+11юв4756100 0.0 1015185
8 мая, сб
сб800:00+10ююв41163100 0.0 1014302
03:00+10ююв61564100 0.0 1013568
06:00+11ююв7166799 0.0 1011614
09:00+11ю71576100 0.0 1009912
12:00+11ю81593100 3.3 10081027
15:00+11зюз5992100 7.8 1009670
18:00+11з5981100 0.6 1010787
21:00+7зсз61280100 0.6 1013712
9 мая, вс
вс900:00+6сз51276100 0.0 1015791
03:00+5зсз41081100 0.0 1016692
06:00+5сз41178100 0.0 1018691
09:00+8ссз5762100 0.0 1019917
12:00+12ссз6847100 0.0 10191933
15:00+12ссз7945100 0.0 10202271
18:00+11с695339 0.1 10221821
21:00+7с39660 0.1 1025385
10 мая, пн
пн1000:00+5ссз25750 0.0 1026116
03:00+4ссз38760 0.0 1028188
06:00+4ссз310765 0.0 1029280
09:00+10ссв610532 0.0 10291202
12:00+13ссв7104449 0.0 10291611
15:00+15ссв710436 0.0 10281736
18:00+14ссв610545 0.0 10281520
21:00+10ссв512630 0.0 1029504